Simultaneous Nadir Overpasses (SNOs) Predictions

Prediction of SNOs between AQUA and GOES-15 Satellite Orbit:

Table of predicted SNOs for the next 14.0 days since TLE Epoch: 2/1/2025
Index Date Time (AQUA) AQUA Lat,Lon GOES-15 Lat,Lon Distance(km) Time Diff (sec)
1 02/02/2025 10:06:05 0.82, 65.76 -0.03, 61.80 449.74 80
2 02/02/2025 22:25:30 0.18, 61.06 0.03, 61.69 71.47 80
3 02/04/2025 22:06:12 -0.83, 65.79 0.03, 61.73 461.48 80
4 02/05/2025 10:25:44 -0.24, 61.07 -0.04, 61.87 91.51 80
5 02/07/2025 10:06:26 0.81, 65.79 -0.04, 61.92 441.52 80
6 02/07/2025 22:25:49 0.20, 61.10 0.04, 61.80 79.51 80
7 02/09/2025 22:06:28 -0.82, 65.84 0.05, 61.85 453.71 80
8 02/10/2025 10:26:00 -0.26, 61.13 -0.05, 61.99 99.21 80
9 02/12/2025 10:06:37 0.74, 65.87 -0.06, 62.05 434.89 80
10 02/12/2025 22:26:01 0.23, 61.18 0.06, 61.93 85.74 80
11 02/14/2025 22:06:37 -0.79, 65.93 0.06, 61.98 448.98 80
